"Pseudo-MPEC" for P224ndB

Created 2025 Jan 15 17:31:04 UT using Find_Orb

Click here for an explanation of pseudo-MPECs

 
 Astrometry: 
     P224ndB* C2024 12 26.29367604 51 42.744-01 32 41.88   ~CQHl 22.23wXNEOCPF52
     P224ndB  C2024 12 26.30702504 51 42.594-01 32 40.88   ~CQHl 22.25wXNEOCPF52
     P224ndB  C2024 12 26.32049004 51 42.414-01 32 40.21   ~CQHl 22.91wXNEOCPF52
     P224ndB  C2024 12 26.33349704 51 42.243-01 32 38.99   ~CQHl 22.20wXNEOCPF52

Station data:
(F52) Pan-STARRS 2, Haleakala  (N20.707382 W156.255910)  US/Hawaii.
   Observers J. Bulger, T. Dukes, T. Lowe, A. Schultz, M. Willman. Measurers
   K. Chambers, S. Chastel, T. de Boer, L. Denneau, J. Fairlamb, H.
   Flewelling, M. Huber, C.-C. Lin, E. Magnier, Y. Ramanjooloo, R. Wainscoat,
   R. Weryk. 1.8-m Ritchey-Chrétien + CCD.

Orbital elements:  P224ndB
   Perihelion 2026 May 25.05624 +/- 1173 TT =  1:20:59 (JD 2461185.55624)
Epoch 2024 Dec 26.0 TT = JDT 2460670.5                           AutoNEOCP
M 358.17713133 +/- 13               (J2000 ecliptic)
n   0.00353916 +/-                  Peri.  333.79820 +/- 70
a  42.6450765 +/-                   Node   106.68277 +/- 55
e   0.6869085 +/- 0.185             Incl.   36.56115 +/- 21
P 278.48599                H 10.85  G  0.15   U 10.7  SR
q 13.3518073 +/- 6.1    Q 71.9383458 +/- 83.3
From 4 observations 2024 Dec. 26 (57.3 min); mean residual 0".11
Residuals in arcseconds: 
241226 F52  .12-  .02+    241226 F52  .02+  .20-    
241226 F52  .17+  .08+    241226 F52  .07-  .11+    

Ephemerides (geocentric):
Date (UTC) HH   RA             Dec           delta  r     elong  mag " sig PA
---- --------  ------------   ------------  ------ ------ -----  --- --------
2025 01 15 18  04 48 03.607   -01 01 59.45  12.832 13.490 130.4 22.4 5402 119
2025 01 15 19  04 48 03.246   -01 01 54.93  12.832 13.490 130.4 22.4 5421 119
2025 01 15 20  04 48 02.886   -01 01 50.41  12.833 13.490 130.3 22.4 5441 119
2025 01 15 21  04 48 02.526   -01 01 45.89  12.833 13.490 130.3 22.4 5460 119
2025 01 15 22  04 48 02.167   -01 01 41.36  12.833 13.490 130.3 22.4 5479 119
2025 01 15 23  04 48 01.808   -01 01 36.83  12.834 13.490 130.2 22.4 5499 119
2025 01 16 00  04 48 01.449   -01 01 32.30  12.834 13.490 130.2 22.4 5518 119
2025 01 16 01  04 48 01.091   -01 01 27.76  12.835 13.490 130.1 22.4 5538 119
2025 01 16 02  04 48 00.733   -01 01 23.23  12.835 13.490 130.1 22.4 5557 119
2025 01 16 03  04 48 00.376   -01 01 18.69  12.836 13.490 130.1 22.4 5577 119
2025 01 16 04  04 48 00.019   -01 01 14.14  12.836 13.490 130.0 22.4 5597 119
2025 01 16 05  04 47 59.662   -01 01 09.60  12.837 13.490 130.0 22.4 5616 119
2025 01 16 06  04 47 59.306   -01 01 05.05  12.837 13.490 130.0 22.4 5636 119
2025 01 16 07  04 47 58.951   -01 01 00.49  12.837 13.490 129.9 22.4 5656 119
2025 01 16 08  04 47 58.595   -01 00 55.94  12.838 13.490 129.9 22.4 5676 119
2025 01 16 09  04 47 58.240   -01 00 51.38  12.838 13.490 129.8 22.4 5695 119
2025 01 16 10  04 47 57.886   -01 00 46.82  12.839 13.490 129.8 22.4 5715 119
2025 01 16 11  04 47 57.531   -01 00 42.26  12.839 13.490 129.8 22.4 5735 119
2025 01 16 12  04 47 57.178   -01 00 37.69  12.840 13.490 129.7 22.4 5755 119
2025 01 16 13  04 47 56.824   -01 00 33.12  12.840 13.490 129.7 22.4 5775 119
2025 01 16 14  04 47 56.471   -01 00 28.55  12.840 13.490 129.7 22.4 5795 119
2025 01 16 15  04 47 56.119   -01 00 23.98  12.841 13.490 129.6 22.4 5815 119
2025 01 16 16  04 47 55.767   -01 00 19.40  12.841 13.490 129.6 22.4 5835 119
2025 01 16 17  04 47 55.415   -01 00 14.82  12.842 13.490 129.6 22.4 5856 119
2025 01 16 18  04 47 55.064   -01 00 10.24  12.842 13.490 129.5 22.4 5876 119
2025 01 16 19  04 47 54.713   -01 00 05.65  12.843 13.490 129.5 22.4 5896 119
2025 01 16 20  04 47 54.362   -01 00 01.06  12.843 13.489 129.4 22.4 5916 119
2025 01 16 21  04 47 54.012   -00 59 56.47  12.844 13.489 129.4 22.4 5937 119
2025 01 16 22  04 47 53.663   -00 59 51.88  12.844 13.489 129.4 22.4 5957 119
2025 01 16 23  04 47 53.313   -00 59 47.28  12.844 13.489 129.3 22.4 5977 119
2025 01 17 00  04 47 52.964   -00 59 42.68  12.845 13.489 129.3 22.4 5998 119
2025 01 17 01  04 47 52.616   -00 59 38.08  12.845 13.489 129.3 22.4 6018 119
2025 01 17 02  04 47 52.268   -00 59 33.47  12.846 13.489 129.2 22.4 6039 119
2025 01 17 03  04 47 51.920   -00 59 28.86  12.846 13.489 129.2 22.4 6059 119
2025 01 17 04  04 47 51.573   -00 59 24.25  12.847 13.489 129.1 22.4 6080 119
2025 01 17 05  04 47 51.226   -00 59 19.64  12.847 13.489 129.1 22.4 6101 119
2025 01 17 06  04 47 50.880   -00 59 15.02  12.848 13.489 129.1 22.4 6121 119
2025 01 17 07  04 47 50.534   -00 59 10.40  12.848 13.489 129.0 22.4 6142 119
2025 01 17 08  04 47 50.188   -00 59 05.78  12.848 13.489 129.0 22.4 6163 119
2025 01 17 09  04 47 49.843   -00 59 01.16  12.849 13.489 129.0 22.4 6184 119
2025 01 17 10  04 47 49.498   -00 58 56.53  12.849 13.489 128.9 22.4 6205 119
2025 01 17 11  04 47 49.154   -00 58 51.90  12.850 13.489 128.9 22.4 6226 120
2025 01 17 12  04 47 48.810   -00 58 47.26  12.850 13.489 128.8 22.4 6247 120
2025 01 17 13  04 47 48.467   -00 58 42.63  12.851 13.489 128.8 22.4 6268 120
2025 01 17 14  04 47 48.123   -00 58 37.99  12.851 13.489 128.8 22.4 6289 120
2025 01 17 15  04 47 47.781   -00 58 33.35  12.852 13.489 128.7 22.4 6310 120
2025 01 17 16  04 47 47.438   -00 58 28.70  12.852 13.489 128.7 22.4 6331 120
2025 01 17 17  04 47 47.097   -00 58 24.06  12.853 13.489 128.7 22.4 6352 120